ATLAS 5 CENTAUR DEB, 44691

Orbit data source: Space-Track

ATLAS 5 CENTAUR DEB, 44691 is space debris in HEO originally from a launch on Wed, 17 Oct 2018 UTC launched from the Air Force Eastern Test Range (AFETR). Debris objects in space refer to the collection of defunct objects orbiting the Earth. Examples of debris include non-operational satellites, rocket bodies, and fragments generated from explosions, collisions, or faulty payload assembly.

Loading next visibility...
Identifier
44691, 2018-079BD
Orbit
HEO
Country
Flag of USUS
Related business
Flag of USUnited Launch Alliance/Lockheed Martin (US)
Manufacturer
ULA Decatur
Mission
Spacecraft
Bus & Motor
Unknown
Mass
Unknown
Launch date (UTC)
2018-10-17 (8 years ago)
Launch vehicle
Unknown
Launch site
Air Force Eastern Test Range (AFETR)
Object type
Payload
Rocket body
Debris
Shape & HBR
Unknown shape, 1.1 m
Radar Cross Section
RCS unknown

Expand to show TLE details & history
Last TLE update: 1 day ago

TLE from 1 day ago
0 ATLAS 5 CENTAUR DEB
1 44691U 18079BD  26126.85418981 -.00000071  00000-0  00000-0 0  9999
2 44691  13.1547  59.0385 4453099 262.2369  46.6870  1.76818753 43454
Epoch: 2026-05-06T20:30Z
TLE epoch observation values (Epoch: 2026-05-06T20:30:01.999Z)
Latitude
0.00003°
Longitude
-113.26988°
Altitude
18,271.113 km
Speed
4.306 km/s
True Right ascension
03h 55m 47s
True Declination
0° 00' 00"
Sunlit
Object was in daylight at epoch
Visualization orbit readout
Latitude
Unknown
Longitude
Unknown
Altitude
Unknown
Speed
Unknown
Apparent Right ascension
Unknown
Apparent Declination
Unknown
Sunlit
N/A
Visualization observer readout
Local Sidereal Time
15:01:25
Azimuth
Unknown
Elevation
Unknown
Doppler factor
Unknown
Orbital elements
Apogee altitude
35,376.719 km
Perigee altitude
9,646.803 km
Semi-major axis
28,889.898 km
Eccentricity
0.44531
Inclination
13.1547°
RAAN
59.0385°
Arg. of periapsis
262.2369°
True anomaly
97.81894°
Mean anomaly
46.687°
Eccentric anomaly
70.77912°
Mean motion
0.442 °/min
Orbital period
814.48 mins
BSTAR
0
Loading maneuver chart data...
Computing Atmospheric mass density...

Documentation

Showing up to 5 results
|